Weather History for Rayong, Thailand

Change the Weather History Date:

Thursday, October 18, 2012

  Actual Average Record
Temperature  
Mean Temperature 84 °F -  
Max Temperature 91 °F 87 °F 93 °F (2007)
Min Temperature 77 °F 76 °F 73 °F (2004)
Cooling Degree Days 19    
Growing Degree Days 34 (Base 50)    
Moisture  
Dew Point 68 °F    
Average Humidity 62    
Maximum Humidity 78    
Minimum Humidity 34    
Precipitation  
Precipitation 0.00 in - - ()
Sea Level Pressure  
Sea Level Pressure 29.87 in    
Wind  
Wind Speed 3 mph ()    
Max Wind Speed 12 mph    
Max Gust Speed -    
Visibility 4.1 miles    
Events Rain , Thunderstorm    
Averages and records for this station are not official NWS values.
T = Trace of Precipitation, MM = Missing Value Source: Averaged Metar Reports

Daily Weather History Graph

Daily Weather History Graph

Search for Another Location

Airport:

Trip Planner

Search our weather history database for the weather conditions in past years. The results will help you decide how hot, cold, wet, or windy it might be!

Date:

Astronomy

Oct. 18, 2012 Rise Set
Actual Time 6:06 AM ICT 5:55 PM ICT
Civil Twilight 5:45 AM ICT 6:17 PM ICT
Nautical Twilight 5:20 AM ICT 6:41 PM ICT
Astronomical Twilight 4:55 AM ICT 7:06 PM ICT
Moon 8:41 AM ICT (10/18) 8:31 PM ICT (10/18)
Length of Visible Light 12h 32m
Length of Day
11h 49m
Waxing Crescent, 10% of the Moon is Illuminated
Oct 18
Waxing Crescent
Oct 22
First Quarter
Oct 30
Full
Nov 7
Last Quarter
Nov 14
New

Hourly Weather History & Observations

Time (ICT) Temp. Heat Index Dew Point Humidity Pressure Visibility Wind Dir Wind Speed Gust Speed Precip Events Conditions
12:00 AM 78.8 °F - 71.6 °F 78% 29.89 in 3.1 mi Calm Calm - N/A   Mostly Cloudy
12:30 AM 78.8 °F - 71.6 °F 78% 29.89 in 3.1 mi Calm Calm - N/A   Mostly Cloudy
1:00 AM 78.8 °F - 71.6 °F 78% 29.86 in 3.1 mi Calm Calm - N/A   Mostly Cloudy
1:30 AM 78.8 °F - 69.8 °F 74% 29.86 in 3.1 mi Calm Calm - N/A   Mostly Cloudy
3:30 AM 77.0 °F - 69.8 °F 78% 29.83 in 3.1 mi Calm Calm - N/A   Mostly Cloudy
4:00 AM 77.0 °F - 69.8 °F 78% 29.83 in 3.1 mi Calm Calm - N/A   Mostly Cloudy
5:30 AM 77.0 °F - 69.8 °F 78% 29.83 in 3.1 mi Calm Calm - N/A   Mostly Cloudy
6:00 AM 77.0 °F - 69.8 °F 78% 29.86 in 3.1 mi Calm Calm - N/A   Mostly Cloudy
6:30 AM 77.0 °F - 69.8 °F 78% 29.86 in 3.1 mi NNE 3.5 mph - N/A   Mostly Cloudy
7:00 AM 77.0 °F - 69.8 °F 78% 29.86 in 3.1 mi Calm Calm - N/A   Mostly Cloudy
7:30 AM 78.8 °F - 69.8 °F 74% 29.89 in 3.1 mi NNE 3.5 mph - N/A   Mostly Cloudy
8:00 AM 80.6 °F 84.6 °F 71.6 °F 74% 29.89 in 3.7 mi NNE 2.3 mph - N/A   Mostly Cloudy
8:30 AM 84.2 °F 87.3 °F 68.0 °F 58% 29.92 in 4.3 mi ENE 3.5 mph - N/A   Mostly Cloudy
9:00 AM 86.0 °F 88.2 °F 66.2 °F 51% 29.92 in 4.3 mi ESE 4.6 mph - N/A   Mostly Cloudy
9:30 AM 87.8 °F 90.4 °F 66.2 °F 49% 29.92 in 5.0 mi East 4.6 mph - N/A   Mostly Cloudy
10:00 AM 87.8 °F 89.4 °F 64.4 °F 46% 29.92 in 5.6 mi ENE 6.9 mph - N/A   Mostly Cloudy
10:30 AM 89.6 °F 90.1 °F 62.6 °F 40% 29.92 in 5.6 mi ESE 4.6 mph - N/A   Mostly Cloudy
11:00 AM 89.6 °F 89.5 °F 60.8 °F 38% 29.92 in 5.6 mi SE 3.5 mph - N/A   Mostly Cloudy
11:30 AM 91.4 °F 91.4 °F 60.8 °F 36% 29.92 in 5.6 mi South 9.2 mph - N/A   Mostly Cloudy
12:00 PM 89.6 °F 89.5 °F 60.8 °F 38% 29.89 in 5.6 mi South 11.5 mph - N/A   Mostly Cloudy
12:30 PM 91.4 °F 90.7 °F 59.0 °F 34% 29.89 in 5.6 mi South 9.2 mph - N/A   Mostly Cloudy
1:00 PM 91.4 °F 93.2 °F 64.4 °F 41% 29.86 in 5.6 mi South 9.2 mph - N/A   Mostly Cloudy
1:30 PM 91.4 °F 93.2 °F 64.4 °F 41% 29.86 in 5.6 mi South 9.2 mph - N/A   Scattered Clouds
2:00 PM 89.6 °F 92.2 °F 66.2 °F 46% 29.83 in 5.6 mi South 9.2 mph - N/A   Scattered Clouds
2:30 PM 89.6 °F 93.4 °F 68.0 °F 49% 29.83 in 5.0 mi South 6.9 mph - N/A   Scattered Clouds
3:00 PM 89.6 °F 92.2 °F 66.2 °F 46% 29.83 in 5.0 mi SSE 5.8 mph - N/A   Scattered Clouds
3:30 PM 89.6 °F 93.4 °F 68.0 °F 49% 29.83 in 5.0 mi SSE 5.8 mph - N/A   Scattered Clouds
4:00 PM 87.8 °F 91.4 °F 68.0 °F 52% 29.83 in 5.0 mi SSW 4.6 mph - N/A   Mostly Cloudy
4:30 PM 87.8 °F 91.4 °F 68.0 °F 52% 29.83 in 5.0 mi SW 4.6 mph - N/A   Mostly Cloudy
5:00 PM 87.8 °F 91.4 °F 68.0 °F 52% 29.83 in 5.0 mi SW 4.6 mph - N/A   Mostly Cloudy
5:30 PM 86.0 °F 89.4 °F 68.0 °F 55% 29.83 in 4.3 mi WSW 4.6 mph - N/A   Mostly Cloudy
6:00 PM 86.0 °F 90.4 °F 69.8 °F 58% 29.83 in 4.3 mi WNW 3.5 mph - N/A Thunderstorm Thunderstorm
6:30 PM 84.2 °F 88.4 °F 69.8 °F 62% 29.86 in 3.7 mi ESE 6.9 mph - N/A Rain , Thunderstorm Light Thunderstorms and Rain
7:00 PM 82.4 °F 87.2 °F 71.6 °F 70% 29.86 in 3.7 mi Calm Calm - N/A Thunderstorm Thunderstorm
7:30 PM 82.4 °F 87.2 °F 71.6 °F 70% 29.86 in 3.7 mi Calm Calm - N/A Thunderstorm Thunderstorm
8:00 PM 80.6 °F 84.6 °F 71.6 °F 74% 29.86 in 3.7 mi NE 3.5 mph - N/A   Mostly Cloudy
8:30 PM 80.6 °F 84.6 °F 71.6 °F 74% 29.86 in 3.1 mi Calm Calm - N/A   Mostly Cloudy
9:00 PM 78.8 °F - 71.6 °F 78% 29.89 in 3.1 mi Calm Calm - N/A   Mostly Cloudy
9:30 PM 78.8 °F - 71.6 °F 78% 29.89 in 3.1 mi North 3.5 mph - N/A   Mostly Cloudy
10:00 PM 78.8 °F - 71.6 °F 78% 29.89 in 3.1 mi Calm Calm - N/A   Mostly Cloudy
10:30 PM 78.8 °F - 71.6 °F 78% 29.89 in 3.1 mi North 4.6 mph - N/A   Mostly Cloudy
11:00 PM 78.8 °F - 71.6 °F 78% 29.89 in 3.1 mi North 3.5 mph - N/A   Mostly Cloudy
11:30 PM 78.8 °F - 71.6 °F 78% 29.89 in 3.1 mi NE 3.5 mph - N/A   Mostly Cloudy